Flag for Hong Kong Weather past 2 weeks in Hong Kong, Hong Kong

Now
70 °F

Scattered clouds.


Feels Like: 70 °F
Forecast: 67 / 77 °F
Wind: 12 mph from East

Location: National Airport

Current Time: Mar 28, 2015 at 8:39:22 AM

Latest Report: Mar 28, 2015 at 8:00 AM


Visibility: N/A

Pressure: 30.09 "Hg

Humidity: 78%

Dew point: 63 °F

Location of Hong KongLocation

Historic Weather in Hong Kong — Graph

°F

Hong Kong temperature yesterday

Maximum temperature yesterday: 73 °F (at 5:00 PM)
Minimum temperature yesterday: 66 °F (at 12:00 AM)
Average temperature yesterday: 69 °F

Past Weeks' High & Low Weather Summary

 TemperatureHumidityPressure
High84 °F (Mar 20, 3:00 PM)94% (Mar 17, 5:30 AM)30.30 "Hg (Mar 17, 5:30 AM)
Low63 °F (Mar 13, 7:00 AM)47% (Mar 23, 11:30 AM)29.80 "Hg (Mar 17, 5:00 PM)
Average72 °F75%30.04 "Hg
* Reported Mar 13 7:00 AM — Mar 28 7:30 AM, Hong Kong, Weather by CustomWeather, © 2015

Note: Actual official high and low records may vary slightly from our data, if they occured in-between our weather recording intervals... More about our weather records

Advertising

Hong Kong weather history for previous 24 hours

 ConditionsComfort  
Time TempWeatherWind HumidityBarometerVisibility
7:30 AM
Sat, Mar 28
70 °FScattered clouds.8 mph73%30.09 "HgN/A
7:00 AM70 °FScattered clouds.7 mph78%30.09 "HgN/A
6:30 AM70 °FScattered clouds.9 mph73%30.07 "HgN/A
6:00 AM70 °FPassing clouds.5 mph78%30.07 "HgN/A
5:30 AM70 °FPassing clouds.8 mph78%30.07 "HgN/A
5:00 AM70 °FPassing clouds.8 mph73%30.07 "HgN/A
4:30 AM70 °FPassing clouds.9 mph78%30.07 "Hg6 mi
4:00 AM68 °FPassing clouds.3 mph83%30.07 "Hg6 mi
3:30 AM68 °FPassing clouds.8 mph83%30.07 "HgN/A
3:00 AM68 °FPassing clouds.9 mph83%30.07 "Hg6 mi
2:30 AM68 °FPassing clouds.5 mph83%30.07 "Hg4 mi
2:00 AM68 °FPassing clouds.5 mph88%30.09 "Hg4 mi
1:30 AM70 °FPassing clouds.5 mph88%30.09 "Hg3 mi
1:00 AM70 °FHaze.5 mph83%30.09 "Hg2 mi
12:30 AM70 °FHaze.6 mph83%30.12 "Hg2 mi
12:00 AM70 °FHaze.6 mph83%30.12 "Hg2 mi
11:30 PM
Fri, Mar 27
70 °FPassing clouds.3 mph88%30.12 "Hg3 mi
11:00 PM72 °FPassing clouds.5 mph78%30.12 "Hg3 mi
10:30 PM72 °FHaze.1 mph78%30.12 "Hg2 mi
10:00 PM73 °FHaze.1 mph74%30.12 "Hg2 mi
9:30 PM72 °FHaze.2 mph78%30.12 "Hg2 mi
9:00 PM73 °FHaze.3 mph74%30.12 "Hg3 mi
8:30 PM73 °FHaze.3 mph74%30.12 "Hg3 mi
8:00 PM73 °FHaze.5 mph74%30.12 "Hg3 mi
7:30 PM73 °FHaze.3 mph74%30.12 "Hg3 mi
7:00 PM72 °FHaze.3 mph78%30.09 "Hg3 mi
6:30 PM73 °FHaze.3 mph74%30.09 "Hg2 mi
6:00 PM73 °FHaze.3 mph74%30.09 "Hg2 mi
5:30 PM73 °FFog.5 mph78%30.09 "Hg2 mi
5:00 PM73 °FFog.7 mph78%30.09 "Hg2 mi
4:30 PM72 °FFog.8 mph83%30.09 "Hg2 mi
4:00 PM72 °FFog.6 mph78%30.09 "Hg2 mi
3:30 PM72 °FFog.3 mph78%30.09 "Hg2 mi
3:00 PM72 °FFog.3 mph78%30.12 "Hg2 mi
2:30 PM70 °FFog.3 mph83%30.12 "Hg2 mi
2:00 PM70 °FScattered clouds.5 mph83%30.15 "Hg2 mi
1:30 PM70 °FScattered clouds.6 mph78%30.15 "Hg3 mi
1:00 PM70 °FScattered clouds.5 mph78%30.18 "Hg3 mi
12:30 PM70 °FScattered clouds.5 mph78%30.18 "Hg4 mi
12:00 PM72 °FScattered clouds.3 mph78%30.21 "Hg5 mi
11:00 AM68 °FScattered clouds.2 mph78%30.21 "Hg5 mi
10:30 AM68 °FScattered clouds.3 mph83%30.24 "Hg4 mi
10:00 AM66 °FScattered clouds.3 mph88%30.24 "Hg3 mi
9:30 AM66 °FLight rain. Fog.5 mph88%30.21 "Hg2 mi
9:00 AM66 °FLight rain. Fog.7 mph88%30.21 "Hg2 mi
8:30 AM66 °FRain. Fog.6 mph88%30.21 "Hg3 mi
8:00 AM66 °FLight rain. Scattered clouds.6 mph88%30.21 "Hg3 mi
Weather by CustomWeather, © 2015

See weather overviewHow to use our weather pages